This demonstration page uses our WeatherBlox Daily Observations layout. Learn more.

Left ArrowRight Arrow

Hourly Observations for January 31, 2016

Temp ( °F °C ) Dew Point ( °F °C ) Humidity (%) Winds ( mph kmh ) Pressure ( in mb ) Visibility ( mi km ) Precip ( " mm )
12:14 am 00:14 Clear 46 8 36 2 66 66 S 6 9 29.80 1009 10 16 N/A
12:34 am 00:34 Clear 45 7 36 2 71 71 S 8 13 29.80 1009 10 16 N/A
12:55 am 00:55 Mostly Cloudy 45 7 36 2 71 71 S 7 11 29.80 1009 10 16 N/A
1:14 am 01:14 Mostly Cloudy 45 7 37 3 76 76 S 7 11 29.80 1009 10 16 N/A
1:34 am 01:34 Mostly Cloudy 45 7 37 3 76 76 S 6 9 29.80 1009 10 16 N/A
1:55 am 01:55 Mostly Cloudy 45 7 37 3 76 76 S 6 9 29.77 1008 10 16 N/A
2:14 am 02:14 Mostly Cloudy 46 8 37 3 71 71 S 7 11 29.77 1008 10 16 N/A
2:34 am 02:34 Mostly Cloudy 46 8 37 3 71 71 S 7 11 29.77 1008 10 16 N/A
2:55 am 02:55 Mostly Cloudy 45 7 37 3 76 76 SSE 7 11 29.77 1008 10 16 N/A
3:14 am 03:14 Partly Cloudy 45 7 37 3 76 76 S 7 11 29.77 1008 10 16 N/A
3:34 am 03:34 Clear 43 6 37 3 81 81 S 7 11 29.77 1008 10 16 N/A
3:55 am 03:55 Clear 43 6 37 3 81 81 S 7 11 29.77 1008 10 16 N/A
4:14 am 04:14 Clear 43 6 37 3 81 81 S 7 11 29.77 1008 10 16 N/A
4:34 am 04:34 Clear 43 6 37 3 81 81 S 8 13 29.74 1007 10 16 N/A
4:55 am 04:55 Clear 43 6 37 3 81 81 S 8 13 29.74 1007 10 16 N/A
5:14 am 05:14 Clear 43 6 39 4 87 87 S 9 15 29.74 1007 10 16 N/A
5:34 am 05:34 Clear 43 6 39 4 87 87 S 9 15 29.74 1007 10 16 N/A
5:55 am 05:55 Clear 43 6 39 4 87 87 S 10 17 29.74 1007 10 16 N/A
6:14 am 06:14 Clear 45 7 39 4 81 81 S 10 17 29.71 1006 10 16 N/A
6:34 am 06:34 Clear 45 7 41 5 87 87 S 9 15 29.71 1006 10 16 N/A
6:54 am 06:54 Clear 45 7 41 5 87 87 S 9 15 29.71 1006 10 16 N/A
7:14 am 07:14 Clear 45 7 41 5 87 87 S 8 13 29.71 1006 10 16 N/A
7:35 am 07:35 Partly Cloudy 43 6 41 5 93 93 S 8 13 29.71 1006 10 16 N/A
7:54 am 07:54 Mostly Cloudy 45 7 41 5 87 87 S 6 9 29.71 1006 10 16 N/A
8:14 am 08:14 Cloudy 45 7 43 6 93 93 S 7 11 29.71 1006 10 16 N/A
8:35 am 08:35 Cloudy 46 8 43 6 87 87 S 8 13 29.71 1006 10 16 N/A
8:54 am 08:54 Cloudy 46 8 43 6 87 87 S 7 11 29.71 1006 10 16 N/A
9:14 am 09:14 Cloudy 48 9 45 7 87 87 S 8 13 29.68 1005 10 16 N/A
9:35 am 09:35 Cloudy 48 9 45 7 87 87 S 10 17 29.68 1005 10 16 N/A
9:54 am 09:54 Cloudy 50 10 46 8 88 88 S 12 19 29.68 1005 10 16 N/A
10:14 am 10:14 Cloudy 50 10 46 8 88 88 S 12 19 29.68 1005 10 16 N/A
10:34 am 10:34 Cloudy 52 11 46 8 82 82 S 10 17 29.68 1005 10 16 N/A
10:54 am 10:54 Cloudy 52 11 46 8 82 82 S 10 17 29.68 1005 10 16 N/A
11:15 am 11:15 Cloudy 52 11 48 9 88 88 S 10 17 29.65 1004 10 16 N/A
11:34 am 11:34 Cloudy 52 11 48 9 88 88 S 8 13 29.65 1004 10 16 N/A
11:54 am 11:54 Cloudy 54 12 48 9 82 82 S 10 17 29.65 1004 10 16 N/A
12:15 pm 12:15 Cloudy 55 13 48 9 77 77 SSW 15 24 29.65 1004 10 16 N/A
12:34 pm 12:34 Cloudy 55 13 48 9 77 77 SSW 15 24 29.62 1003 10 16 N/A
12:54 pm 12:54 Cloudy 55 13 48 9 77 77 SSW 17 28 29.62 1003 10 16 N/A
1:15 pm 13:15 Cloudy 55 13 48 9 77 77 SSW 14 22 29.62 1003 10 16 N/A
1:34 pm 13:34 Cloudy 57 14 48 9 72 72 SSW 16 26 29.62 1003 10 16 N/A
1:54 pm 13:54 Cloudy 57 14 48 9 72 72 SSW 17 28 29.59 1002 10 16 N/A
2:15 pm 14:15 Cloudy 57 14 48 9 72 72 SSW 18 30 29.59 1002 10 16 N/A
2:34 pm 14:34 Cloudy 57 14 48 9 72 72 SSW 15 24 29.59 1002 10 16 N/A
2:54 pm 14:54 Cloudy 57 14 48 9 72 72 SSW 13 20 29.59 1002 10 16 N/A
3:15 pm 15:15 Cloudy 57 14 48 9 72 72 SSW 14 22 29.59 1002 10 16 N/A
3:34 pm 15:34 Cloudy 57 14 48 9 72 72 SSW 9 15 29.59 1002 10 16 N/A
3:54 pm 15:54 Cloudy 57 14 48 9 72 72 SSW 12 19 29.59 1002 10 16 N/A
4:34 pm 16:34 Cloudy 57 14 48 9 72 72 SSW 9 15 29.62 1003 10 16 N/A
4:54 pm 16:54 Cloudy 57 14 48 9 72 72 SW 12 19 29.62 1003 10 16 N/A
5:14 pm 17:14 Cloudy 57 14 48 9 72 72 SW 14 22 29.62 1003 10 16 N/A
5:34 pm 17:34 Cloudy 57 14 48 9 72 72 SW 21 33 29.62 1003 10 16 N/A
5:54 pm 17:54 Cloudy 59 15 50 10 72 72 SW 18 30 29.65 1004 10 16 N/A
6:14 pm 18:14 Cloudy 59 15 50 10 72 72 SW 17 28 29.65 1004 10 16 N/A
6:34 pm 18:34 Cloudy 57 14 50 10 77 77 SW 17 28 29.65 1004 10 16 N/A
6:54 pm 18:54 Cloudy 57 14 50 10 77 77 SW 20 31 29.65 1004 10 16 N/A
7:14 pm 19:14 Cloudy 57 14 50 10 77 77 SW 18 30 29.65 1004 10 16 N/A
7:34 pm 19:34 Cloudy 57 14 50 10 77 77 SW 13 20 29.68 1005 10 16 N/A
7:55 pm 19:55 Cloudy 57 14 50 10 77 77 SW 13 20 29.68 1005 10 16 N/A
8:14 pm 20:14 Cloudy 57 14 50 10 77 77 SW 13 20 29.68 1005 10 16 N/A
8:34 pm 20:34 Cloudy 55 13 52 11 88 88 WSW 16 26 29.68 1005 5 8 N/A
8:55 pm 20:55 Cloudy 54 12 50 10 88 88 W 22 35 29.71 1006 4 6 N/A
9:14 pm 21:14 Cloudy 50 10 48 9 94 94 WNW 18 30 29.74 1007 5 8 N/A
9:34 pm 21:34 Cloudy 50 10 46 8 88 88 WNW 16 26 29.74 1007 10 16 N/A
9:55 pm 21:55 Cloudy 48 9 45 7 87 87 WNW 13 20 29.80 1009 10 16 N/A
10:14 pm 22:14 Cloudy 48 9 43 6 82 82 WNW 16 26 29.80 1009 10 16 N/A
10:34 pm 22:34 Cloudy 46 8 43 6 87 87 WNW 18 30 29.80 1009 10 16 N/A
10:55 pm 22:55 Cloudy 46 8 41 5 82 82 WNW 15 24 29.83 1010 10 16 N/A
11:14 pm 23:14 Cloudy 45 7 39 4 81 81 WNW 25 41 29.83 1010 10 16 N/A
11:34 pm 23:34 Cloudy 43 6 39 4 87 87 NW 16 26 29.85 1011 7 11 N/A
11:55 pm 23:55 Cloudy 41 5 39 4 93 93 NNW 13 20 29.85 1011 7 11 N/A

Powered by AerisWeather